Powrót do katalogu

COSMOS 1911

AktywnyMilitariaPO
NORAD 18790·PAYLOAD·🇷🇺 Russia

Wystrzelony Jan 15, 1988 z Plesetsk Cosmodrome

Loading…

Następne Przeloty (najbliższe 24 godziny)

TLE

ŚwieżeSource: Space-Track

Epoka: Sep 14, 2026, 05:44 UTC

1 18790U 88002C   26257.23907862  .00000019  00000-0  45342-4 0  9994
2 18790  82.6119 191.7259 0006336 297.5244 239.8542 12.64386242784201

Śledź COSMOS 1911 w czasie rzeczywistym z AllMySat

Download on the App Store